Terug naar catalogus

STARLINK-5215

ActiefCommunicatieVLEO
NORAD 54759·PAYLOAD·🇺🇸 United States

Gelanceerd Dec 17, 2022 vanaf Cape Canaveral Space Force Station

Loading…

Volgende Passages (komende 24 uur)

TLE

VersSource: CelesTrak SupGP

Epoch: Sep 14, 2026, 21:22 UTC

1 54759C 22175B   26257.89076389  .00023492  00000+0  75558-3 0  2578
2 54759  53.1558 257.8882 0001238  96.4498 228.7044 15.31684571    12

Volg STARLINK-5215 in realtime met AllMySat

Download on the App Store